CZ-4C R/B, 40112

Orbit data source: Space-Track

CZ-4C R/B, 40112 is space debris in LEO originally from a launch on Sat, 09 Aug 2014 UTC launched from the Jiuquan Satellite Launch Center, China (JSC). Debris objects in space refer to the collection of defunct objects orbiting the Earth. Examples of debris include non-operational satellites, rocket bodies, and fragments generated from explosions, collisions, or faulty payload assembly.

Loading next visibility...
CZ-4C R/B details
Identifier
40112, 2014-047D
Orbit
LEO
Last TLE update13 hours ago
Origin
Flag of CNCNSA (CN / PRC)
ManufacturerSAST
MissionSpacecraft
Bus & MotorCZ-4 STAGE 3, Unknown motor
Mass~1,000 kg wet, ~1,000 kg dry
Launch date (UTC)
2014-08-09 (10 years ago)
Launch vehicleUnknown
Launch site
Jiuquan Satellite Launch Center, China (JSC)
Object type
Payload
Rocket body
Debris
Shape & HBRCyl, 2.9 m
Radar Cross Section20.385 m², Large (>1 m²)

Expand to show TLE details & history

TLE from 13 hours ago
0 CZ-4C R/B
1 40112U 14047D   24361.23949586  .00000932  00000-0  47100-3 0  9995
2 40112  63.4185 272.3894 0508834 359.4548   0.5873 13.69987368519264
Epoch: 2024-12-26T05:44Z
Definitive object data (Epoch: 2024-12-26T05:44:52.442Z)
Latitude-0.00001°
Longitude90.94915°
Altitude625.994 km
Speed7.736 km/s
True Right ascension18h 09m 33s
True Declination0° 00' 00"
Sunlit
Object was in daylight at TLE epoch
Visualization TLE readout
Latitude47.53049°
Longitude-123.43942°
Altitude1,208.734 km
Speed7.154 km/s
Apparent Right ascension04h 53m 33s
Apparent Declination8° 50' 53"
Sunlit
Object is in full shadow
Visualization observer readout
Local Sidereal Time17:58:06
Azimuth20.694° NNE
Elevation-38.998°
Doppler factor1
Orbital elements
Apogee altitude1,373.769 km
Perigee altitude623.08 km
Semi-major axis7,376.562 km
Eccentricity0.0508834
Inclination63.4185°
RAAN272.3894°
Arg. of periapsis359.4548°
True anomaly0.65111°
Mean anomaly0.5873°
Eccentric anomaly0.61879°
Mean motion3.4258 °/min
BSTAR0.000471
Orbital period105.08 mins
Loading maneuver chart data...
Loading historical data...
Loading historical data...
Loading historical data...
Loading historical data...
Loading historical data...
Loading historical data...
Loading historical data...

CZ-4C R/B Visibility forecast

Observer location: undefined°, undefined

Span
Click to sort rows by Start time (UTC) header in descending order
Start Az.
Max El. time (UTC)
Max El. Az.
Max El.
End time (UTC)
End Az.
9 mins2024-12-26 19:53:35.140Z194.992° SSW2024-12-26 19:57:35.140Z104.982° ESE40.283°2024-12-26 20:02:35.140Z40.696° NE
7 mins2024-12-26 21:43:35.140Z282.672° WNW2024-12-26 21:46:35.140Z327.223° NNW20.653°2024-12-26 21:50:35.140Z12.341° NNE
11 mins2024-12-27 03:15:35.140Z349.836° N2024-12-27 03:20:35.140Z43.913° NE26.145°2024-12-27 03:26:35.140Z97.279° ESE
14 mins2024-12-27 05:03:35.140Z322.152° NNW2024-12-27 05:09:35.140Z245.436° WSW44.261°2024-12-27 05:17:35.140Z155.394° SSE
7 mins2024-12-27 06:54:35.140Z277.878° WNW2024-12-27 06:57:35.140Z253.191° W15.462°2024-12-27 07:01:35.140Z222.998° SW
|